Hourly Data Report for January 09, 2020

TORONTO CITY
ONTARIO
Current Station Operator: ECCC - MSC

43°40'00.000" N
79°24'00.000" W
112.50 m
6158355
71508
XTO

Download Data

Hourly Data (January 2020)
Hourly Data Report for January 9, 2020
TIME
LST
Temp Definition
°C
Dew Point Definition
°C
Rel Hum Definition
%
Precip. Amount Definition
mm

Wind Dir Definition
10's deg

Wind Spd Definition
km/h
Visibility Definition
km
Stn Press Definition
kPa
Hmdx Definition


Wind Chill Definition


Weather Definition


00:00 -7.0 -14.8 54 0.0       102.08     LegendNANA
01:00 -7.8 -15.2 55 0.0       102.09     LegendNANA
02:00 -8.1 -15.2 57 0.0       102.15     LegendNANA
03:00 -8.2 -14.8 59 0.0       102.22     LegendNANA
04:00 -8.6 -13.8 66 0.0       102.25     LegendNANA
05:00 -9.2 -14.2 67 0.0       102.30     LegendNANA
06:00 -9.4 -14.0 69 0.0       102.38     LegendNANA
07:00 -9.6 -14.4 68 0.0       102.42     LegendNANA
08:00 -9.5 -13.2 74 0.0       102.42     LegendNANA
09:00 -8.0 -10.8 80 0.0       102.43     LegendNANA
10:00 -5.5 -8.2 82 0.0       102.36     LegendNANA
11:00 -4.8 -9.8 68 0.0       102.30     LegendNANA
12:00 -4.3 -10.5 62 0.0       102.14     LegendNANA
13:00 -4.4 -10.3 63 0.0       101.97     LegendNANA
14:00 -3.8 -9.6 64 0.0       101.80     LegendNANA
15:00 -3.6 -9.1 65 0.0       101.75     LegendNANA
16:00 -2.9 -9.3 61 0.0       101.65     LegendNANA
17:00 -2.2 -9.0 59 0.0       101.55     LegendNANA
18:00 -1.5 -8.3 60 0.0       101.46     LegendNANA
19:00 -0.9 -7.5 61 0.0       101.29     LegendNANA
20:00 0.1 -6.4 62 0.0       101.17     LegendNANA
21:00 0.7 -6.1 60 0.0       101.04     LegendNANA
22:00 1.4 -5.7 59 0.0       100.93     LegendNANA
23:00 2.0 -6.0 55 0.0       100.87     LegendNANA

Notes on Data Quality.

Legend

  • E = Estimated
  • M = Missing
  • NA = Not Available*
  • [empty] = Indicates an unobserved value
Date modified: